Weather in Aleksandrovka

Russia / Chuvash Republic     55°16′03″N   47°35′45″E
temp.,
°C
wind,
m/s
gust,
m/s
humid.,
%
clouds,
%
prec.,
mm/h
press.,
hPa
HPBL,
m
16 april, fri
fri1600:00+12e226659 0.0 101814
03:00+10ne598994 0.0 1020200
06:00+9ene6109798 0.0 1021316
09:00+11ene6983100 0.0 1022539
12:00+15ene686277 0.0 1022776
15:00+16ene785340 0.0 10221038
18:00+14ene696535 0.0 1023472
21:00+10ene5127318 0.0 1024378
17 april, sat
sat1700:00+7ene511776 0.0 1025303
03:00+5ene510757 0.0 1025238
06:00+5ene511745 0.0 1026290
09:00+9ene69585 0.0 1026551
12:00+13ene67465 0.0 1025960
15:00+14ene67380 0.0 10241185
18:00+11ene58425 0.0 1024300
21:00+8ene511550 0.0 1024268
18 april, sun
sun1800:00+6ene512650 0.0 1024293
03:00+4ene511720 0.0 1025225
06:00+4ene511735 0.0 1024291
09:00+9e69533 0.0 1024832
12:00+12ene68415 0.0 10241330
15:00+13ene783997 0.0 10231691
18:00+11ene5950100 0.0 1024446
21:00+7ene71270100 0.0 1026698
19 april, mon
mon1900:00+5ene61255100 0.0 1027557
03:00+3ene61157100 0.0 1027468
06:00+3ene6126350 0.0 1028577
09:00+5e8114624 0.0 10291027
12:00+7e911445 0.0 10291362
15:00+8e910425 0.0 10291541
18:00+7e7104666 0.0 10291315
21:00+5e61149100 0.0 1030773
20 april, tue
tue2000:00+3e6145086 0.0 1030484
03:00+1e613595 0.0 1031354
06:00+2ese614645 0.0 1031580
09:00+6ese811455 0.0 1031898
12:00+9se810385 0.0 10301352
15:00+10ese8113663 0.0 10281404
18:00+9ese81339100 0.0 10261116
21:00+7se81541100 0.0 1026783